Location: Tambov
(52.7163°N, 41.4075°E)
Time: 06:01:56
(UTC+03:00)

Envisat - Pass Details

Date: 12 March 2021
Orbit: 764 x 766 km, 98.1° (Epoch: 18 April)

Event Time Altitude Azimuth Distance (km) Brightness Sun altitude
Rises 05:41:17 0° 17° (NNE) 3,247 6.6 -9.1°
Reaches altitude 10° 05:43:39 10° 22° (NNE) 2,316 5.9 -8.7°
Maximum altitude 05:48:39 54° 100° (E) 932 3.9 -8.0°
Drops below altitude 10° 05:53:37 10° 178° (S) 2,297 5.5 -7.2°
Sets 05:55:57 0° 182° (S) 3,219 6.2 -6.9°
